| time (UTC) | temp F | wind direction | speed MPH | gust MPH | rain 1hr in | rain 24hr in | rain mn in | humidity % | barometer mb |
| 20260505074502 | 60 | 321 | 0.0 | 0.0 | 0.00 | 0.00 | 0.00 | 48 | 1001.4 |
| 20260505073048 | 61 | 321 | 0.0 | 0.0 | 0.00 | 0.00 | 0.00 | 48 | 1001.4 |
| 20260505071541 | 61 | 321 | 0.0 | 0.0 | 0.00 | 0.00 | 0.00 | 48 | 1001.4 |
| 20260505070021 | 62 | 321 | 0.0 | 0.0 | 0.00 | 0.00 | 0.00 | 46 | 1001.1 |
| 20260505064527 | 62 | 323 | 0.0 | 0.0 | 0.00 | 0.00 | 0.00 | 45 | 1000.9 |
| 20260505063106 | 62 | 324 | 0.0 | 0.0 | 0.00 | 0.00 | 0.00 | 45 | 1000.9 |
| 20260505061601 | 63 | 321 | 0.0 | 0.0 | 0.00 | 0.00 | 0.00 | 45 | 1001.0 |
| 20260505060040 | 63 | 321 | 0.0 | 0.0 | 0.00 | 0.00 | 0.00 | 44 | 1000.9 |
| 20260505054547 | 64 | 321 | 0.0 | 0.0 | 0.00 | 0.00 | 0.00 | 44 | 1000.7 |
| 20260505053026 | 64 | 323 | 0.0 | 0.0 | 0.00 | 0.00 | 0.00 | 44 | 1000.5 |
| 20260505051524 | 64 | 324 | 0.0 | 0.0 | 0.00 | 0.00 | 0.00 | 44 | 1000.6 |
| 20260505041512 | 68 | 324 | 0.0 | 0.0 | 0.00 | 0.00 | 0.00 | 40 | 1000.4 |
| 20260505040008 | 69 | 329 | 0.0 | 0.0 | 0.00 | 0.00 | 0.00 | 39 | 1000.3 |
| 20260505034504 | 71 | 331 | 0.0 | 0.0 | 0.00 | 0.00 | 0.00 | 36 | 1000.1 |
| 20260505033001 | 72 | 331 | 0.0 | 0.0 | 0.00 | 0.00 | 0.00 | 35 | 999.9 |
| 20260505031544 | 73 | 330 | 2.0 | 0.0 | 0.00 | 0.00 | 0.00 | 34 | 999.8 |
| 20260505030046 | 74 | 339 | 3.0 | 0.0 | 0.00 | 0.00 | 0.00 | 33 | 999.6 |
| 20260505024518 | 75 | 306 | 3.0 | 0.0 | 0.00 | 0.00 | 0.00 | 32 | 999.5 |
| 20260505023012 | 76 | 338 | 4.0 | 0.0 | 0.00 | 0.00 | 0.00 | 31 | 999.4 |
| 20260505021552 | 77 | 344 | 4.0 | 0.0 | 0.00 | 0.00 | 0.00 | 28 | 999.3 |
| 20260505020103 | 78 | 344 | 4.0 | 0.0 | 0.00 | 0.00 | 0.00 | 27 | 999.3 |
| 20260505014536 | 79 | 347 | 4.0 | 0.0 | 0.00 | 0.00 | 0.00 | 26 | 999.4 |
| 20260505013031 | 79 | 332 | 4.0 | 0.0 | 0.00 | 0.00 | 0.00 | 26 | 999.5 |
| 20260505011509 | 80 | 346 | 5.0 | 0.0 | 0.00 | 0.00 | 0.00 | 25 | 999.6 |
| 20260505010008 | 80 | 336 | 5.0 | 0.0 | 0.00 | 0.00 | 0.00 | 23 | 999.6 |
| 20260505004601 | 81 | 341 | 6.0 | 0.0 | 0.00 | 0.00 | 0.00 | 22 | 999.8 |
| 20260505003052 | 81 | 338 | 5.0 | 0.0 | 0.00 | 0.00 | 0.00 | 19 | 999.9 |
| 20260505001535 | 82 | 344 | 5.0 | 0.0 | 0.00 | 0.00 | 0.00 | 19 | 1000.0 |
| 20260505000030 | 81 | 344 | 5.0 | 0.0 | 0.00 | 0.00 | 0.00 | 18 | 1000.1 |
| 20260504234518 | 82 | 334 | 5.0 | 0.0 | 0.00 | 0.00 | 0.00 | 18 | 1000.3 |
| 20260504233011 | 81 | 340 | 5.0 | 0.0 | 0.00 | 0.00 | 0.00 | 19 | 1000.4 |
| 20260504231509 | 81 | 355 | 5.0 | 0.0 | 0.00 | 0.00 | 0.00 | 21 | 1000.5 |
| 20260504230008 | 81 | 355 | 5.0 | 0.0 | 0.00 | 0.00 | 0.00 | 23 | 1000.7 |
| 20260504224506 | 81 | 336 | 5.0 | 0.0 | 0.00 | 0.00 | 0.00 | 23 | 1000.9 |
| 20260504223004 | 81 | 342 | 4.0 | 0.0 | 0.00 | 0.00 | 0.00 | 23 | 1001.0 |
| 20260504221504 | 81 | 69 | 4.0 | 0.0 | 0.00 | 0.00 | 0.00 | 23 | 1001.3 |
| 20260504220059 | 80 | 351 | 3.0 | 0.0 | 0.00 | 0.00 | 0.00 | 24 | 1001.5 |
| 20260504214538 | 80 | 355 | 4.0 | 0.0 | 0.00 | 0.00 | 0.00 | 26 | 1001.7 |
| 20260504213041 | 79 | 333 | 4.0 | 0.0 | 0.00 | 0.00 | 0.00 | 27 | 1002.0 |
| 20260504211525 | 79 | 355 | 0.0 | 0.0 | 0.00 | 0.00 | 0.00 | 29 | 1002.3 |
| 20260504210018 | 79 | 332 | 0.0 | 0.0 | 0.00 | 0.00 | 0.00 | 30 | 1002.5 |
| 20260504204516 | 79 | 331 | 0.0 | 0.0 | 0.00 | 0.00 | 0.00 | 31 | 1002.7 |
| 20260504203015 | 78 | 319 | 0.0 | 0.0 | 0.00 | 0.00 | 0.00 | 30 | 1003.0 |
| 20260504201513 | 77 | 313 | 0.0 | 0.0 | 0.00 | 0.00 | 0.00 | 32 | 1003.2 |
| 20260504200012 | 76 | 299 | 0.0 | 0.0 | 0.00 | 0.00 | 0.00 | 32 | 1003.4 |
| 20260504194516 | 76 | 322 | 0.0 | 0.0 | 0.00 | 0.00 | 0.00 | 32 | 1003.7 |
| 20260504193011 | 75 | 319 | 0.0 | 0.0 | 0.00 | 0.00 | 0.00 | 32 | 1003.8 |
| 20260504191621 | 75 | 313 | 0.0 | 0.0 | 0.00 | 0.00 | 0.00 | 30 | 1004.0 |
| 20260504184605 | 74 | 281 | 0.0 | 0.0 | 0.00 | 0.00 | 0.00 | 33 | 1004.5 |
| 20260504183056 | 73 | 270 | 2.0 | 0.0 | 0.00 | 0.00 | 0.00 | 35 | 1004.6 |
| 20260504181555 | 72 | 302 | 0.0 | 0.0 | 0.00 | 0.00 | 0.00 | 36 | 1004.8 |
| 20260504180055 | 72 | 304 | 1.0 | 0.0 | 0.00 | 0.00 | 0.00 | 35 | 1004.8 |
| 20260504174554 | 70 | 305 | 4.0 | 0.0 | 0.00 | 0.00 | 0.00 | 37 | 1004.9 |
| 20260504173054 | 70 | 290 | 3.0 | 0.0 | 0.00 | 0.00 | 0.00 | 39 | 1005.0 |
| 20260504171540 | 69 | 301 | 2.0 | 0.0 | 0.00 | 0.00 | 0.00 | 44 | 1005.1 |
| 20260504081534 | 58 | 328 | 1.0 | 0.0 | 0.00 | 0.00 | 0.00 | 55 | 1004.6 |